timestamp,wind_dir_avg,wind_spd_avg,wind_spd_max_dir,wind_spd_gust,battery_voltage,lat,long
2022-10-21 00:04:00+00:00,215.0,10.7,216.0,12.16,12.41,47.59359,-54.27349
2022-10-21 00:14:01+00:00,219.0,10.56,216.0,12.88,12.41,47.59359,-54.27349
2022-10-21 00:24:01+00:00,214.0,9.88,215.0,10.93,12.41,47.59359,-54.27349
2022-10-21 00:34:01+00:00,215.0,9.0,218.0,10.1,12.41,47.59359,-54.27349
2022-10-21 00:44:01+00:00,202.0,8.48,203.0,9.9,12.41,47.59359,-54.27349
2022-10-21 00:54:01+00:00,197.0,8.54,200.0,9.61,12.41,47.59359,-54.27349
2022-10-21 01:04:01+00:00,201.0,8.22,205.0,9.65,12.41,47.59359,-54.27349
2022-10-21 01:14:00+00:00,212.0,7.94,206.0,9.41,12.33,47.59359,-54.27349
2022-10-21 01:24:00+00:00,210.0,9.57,209.0,10.85,12.33,47.59359,-54.27349
2022-10-21 01:34:00+00:00,218.0,9.25,216.0,10.7,12.33,47.59359,-54.27349
2022-10-21 01:44:00+00:00,213.0,9.18,217.0,10.09,12.33,47.59359,-54.27349
2022-10-21 01:54:00+00:00,215.0,8.61,220.0,10.05,12.33,47.59359,-54.27349
2022-10-21 02:04:00+00:00,212.0,7.67,213.0,8.63,12.33,47.59359,-54.27349
2022-10-21 02:14:01+00:00,207.0,7.37,206.0,8.2,12.33,47.59359,-54.27349
2022-10-21 02:24:01+00:00,211.0,8.1,217.0,9.24,12.33,47.59359,-54.27349
2022-10-21 02:34:01+00:00,219.0,8.18,218.0,9.61,12.33,47.59359,-54.27349
2022-10-21 02:44:01+00:00,212.0,8.42,212.0,9.43,12.33,47.59359,-54.27349
2022-10-21 02:54:01+00:00,213.0,6.41,214.0,7.44,12.33,47.59359,-54.27349
2022-10-21 03:04:01+00:00,226.0,5.84,226.0,6.94,12.33,47.59359,-54.27349
2022-10-21 03:14:01+00:00,224.0,5.55,227.0,6.62,12.25,47.59359,-54.27349
2022-10-21 03:24:01+00:00,234.0,5.74,233.0,6.69,12.25,47.59359,-54.27349
2022-10-21 03:34:01+00:00,235.0,5.53,234.0,5.98,12.25,47.59359,-54.27349
2022-10-21 03:44:01+00:00,225.0,2.92,225.0,3.55,12.25,47.59359,-54.27349
2022-10-21 03:54:01+00:00,250.0,3.13,252.0,3.85,12.25,47.59359,-54.27349
2022-10-21 04:04:01+00:00,229.0,3.68,234.0,4.41,12.25,47.59359,-54.27349
2022-10-21 04:14:01+00:00,290.0,6.46,290.0,7.2,12.33,47.59359,-54.27349
2022-10-21 04:24:01+00:00,291.0,7.73,296.0,8.66,12.33,47.59359,-54.27349
2022-10-21 04:34:01+00:00,299.0,5.35,296.0,6.02,12.33,47.59359,-54.27349
2022-10-21 04:44:01+00:00,280.0,4.96,278.0,9.12,12.33,47.59359,-54.27349
2022-10-21 04:54:01+00:00,271.0,4.81,267.0,6.39,12.33,47.59359,-54.27349
2022-10-21 05:04:01+00:00,263.0,4.76,260.0,8.07,12.33,47.59359,-54.27349
2022-10-21 05:14:01+00:00,276.0,6.15,277.0,10.16,12.25,47.59359,-54.27349
2022-10-21 05:24:01+00:00,272.0,9.49,276.0,10.8,12.25,47.59359,-54.27349
2022-10-21 05:34:01+00:00,270.0,8.16,267.0,9.4,12.25,47.59359,-54.27349
2022-10-21 05:44:01+00:00,272.0,9.15,270.0,10.57,12.25,47.59359,-54.27349
2022-10-21 05:54:01+00:00,275.0,3.96,284.0,4.73,12.25,47.59359,-54.27349
2022-10-21 06:04:01+00:00,275.0,5.02,274.0,8.98,12.25,47.59359,-54.27349
2022-10-21 06:14:00+00:00,271.0,4.09,293.0,5.33,12.25,47.59359,-54.27349
2022-10-21 06:24:00+00:00,272.0,3.84,276.0,4.28,12.25,47.59359,-54.27349
2022-10-21 06:34:00+00:00,292.0,3.55,313.0,5.67,12.25,47.59359,-54.27349
2022-10-21 06:44:00+00:00,292.0,4.79,293.0,5.43,12.25,47.59359,-54.27349
2022-10-21 06:54:00+00:00,288.0,6.72,274.0,8.53,12.25,47.59359,-54.27349
2022-10-21 07:04:00+00:00,285.0,6.54,285.0,9.92,12.25,47.59359,-54.27349
2022-10-21 07:14:01+00:00,301.0,5.01,296.0,6.53,12.25,47.59359,-54.27349
2022-10-21 07:24:01+00:00,313.0,5.31,324.0,6.21,12.25,47.59359,-54.27349
2022-10-21 07:34:01+00:00,305.0,4.63,306.0,5.48,12.25,47.59359,-54.27349
2022-10-21 07:44:01+00:00,306.0,5.7,297.0,7.03,12.25,47.59359,-54.27349
2022-10-21 07:54:01+00:00,315.0,4.58,319.0,5.3,12.25,47.59359,-54.27349
2022-10-21 08:04:01+00:00,312.0,4.54,314.0,5.35,12.25,47.59359,-54.27349
2022-10-21 08:14:00+00:00,313.0,5.02,315.0,5.85,12.25,47.59359,-54.27349
2022-10-21 08:24:00+00:00,320.0,5.66,325.0,6.71,12.25,47.59359,-54.27349
2022-10-21 08:34:00+00:00,320.0,4.77,318.0,5.35,12.25,47.59359,-54.27349
2022-10-21 08:44:00+00:00,295.0,3.18,299.0,4.41,12.25,47.59359,-54.27349
2022-10-21 08:54:00+00:00,309.0,4.71,311.0,5.8,12.25,47.59359,-54.27349
2022-10-21 09:04:00+00:00,323.0,5.89,324.0,6.8,12.25,47.59359,-54.27349
2022-10-21 09:14:01+00:00,323.0,5.2,322.0,5.92,12.25,47.59359,-54.27349
2022-10-21 09:24:01+00:00,325.0,4.09,323.0,4.48,12.25,47.59359,-54.27349
2022-10-21 09:34:01+00:00,327.0,3.65,323.0,4.22,12.25,47.59359,-54.27349
2022-10-21 09:44:01+00:00,329.0,3.53,325.0,4.08,12.25,47.59359,-54.27349
2022-10-21 09:54:01+00:00,324.0,2.89,331.0,3.43,12.25,47.59359,-54.27349
2022-10-21 10:04:01+00:00,322.0,3.62,321.0,4.41,12.25,47.59359,-54.27349
2022-10-21 10:14:00+00:00,329.0,3.72,325.0,4.27,12.25,47.59359,-54.27349
2022-10-21 10:24:00+00:00,320.0,3.44,327.0,4.09,12.25,47.59359,-54.27349
2022-10-21 10:34:00+00:00,328.0,2.45,342.0,3.31,12.25,47.59359,-54.27349
2022-10-21 10:44:00+00:00,311.0,3.15,308.0,3.66,12.25,47.59359,-54.27349
2022-10-21 10:54:00+00:00,315.0,2.97,317.0,3.43,12.25,47.59359,-54.27349
2022-10-21 11:04:00+00:00,314.0,3.93,315.0,4.46,12.25,47.59359,-54.27349
2022-10-21 11:14:00+00:00,313.0,3.96,319.0,4.49,14.0,47.59359,-54.27349
2022-10-21 11:24:00+00:00,310.0,3.06,314.0,3.74,14.0,47.59359,-54.27349
2022-10-21 11:34:00+00:00,298.0,3.23,301.0,3.77,14.0,47.59359,-54.27349
2022-10-21 11:44:00+00:00,307.0,3.36,310.0,4.06,14.0,47.59359,-54.27349
2022-10-21 11:54:00+00:00,314.0,3.25,319.0,3.9,14.0,47.59359,-54.27349
2022-10-21 12:04:00+00:00,298.0,4.47,299.0,4.95,14.0,47.59359,-54.27349
2022-10-21 12:14:00+00:00,284.0,5.15,284.0,5.99,13.92,47.59359,-54.27349
2022-10-21 12:24:00+00:00,286.0,5.16,289.0,5.89,13.92,47.59359,-54.27349
2022-10-21 12:34:00+00:00,291.0,3.88,291.0,4.54,13.92,47.59359,-54.27349
2022-10-21 12:44:00+00:00,297.0,2.9,297.0,3.57,13.92,47.59359,-54.27349
2022-10-21 12:54:00+00:00,308.0,2.02,317.0,2.5,13.92,47.59359,-54.27349
2022-10-21 13:04:00+00:00,307.0,1.37,307.0,1.7,13.92,47.59359,-54.27349
2022-10-21 13:14:00+00:00,347.0,0.93,340.0,1.24,13.84,47.59359,-54.27349
2022-10-21 13:24:00+00:00,111.0,0.64,105.0,1.06,13.84,47.59359,-54.27349
2022-10-21 13:34:00+00:00,176.0,0.73,179.0,0.88,13.84,47.59359,-54.27349
2022-10-21 13:44:00+00:00,182.0,0.58,220.0,0.93,13.84,47.59359,-54.27349
2022-10-21 13:54:00+00:00,302.0,2.82,307.0,3.39,13.84,47.59359,-54.27349
2022-10-21 14:04:00+00:00,277.0,2.99,273.0,3.54,13.84,47.59359,-54.27349
2022-10-21 15:14:01+00:00,291.0,3.14,291.0,3.36,14.32,47.59359,-54.27349
2022-10-21 15:24:01+00:00,297.0,2.78,291.0,3.69,14.32,47.59359,-54.27349
2022-10-21 15:34:01+00:00,272.0,4.15,271.0,4.58,14.32,47.59359,-54.27349
2022-10-21 15:44:01+00:00,254.0,3.52,253.0,3.79,14.32,47.59359,-54.27349
2022-10-21 15:54:01+00:00,276.0,4.22,276.0,4.83,14.32,47.59359,-54.27349
2022-10-21 16:04:01+00:00,258.0,3.48,257.0,4.53,14.32,47.59359,-54.27349
2022-10-21 16:14:00+00:00,249.0,3.94,250.0,4.28,13.84,47.59359,-54.27349
2022-10-21 16:24:00+00:00,235.0,3.45,234.0,3.94,13.84,47.59359,-54.27349
2022-10-21 16:34:00+00:00,223.0,3.28,227.0,3.64,13.84,47.59359,-54.27349
2022-10-21 16:44:00+00:00,220.0,4.63,226.0,5.25,13.84,47.59359,-54.27349
2022-10-21 16:54:00+00:00,221.0,4.25,218.0,4.72,13.84,47.59359,-54.27349
2022-10-21 17:04:00+00:00,221.0,4.34,220.0,4.94,13.84,47.59359,-54.27349
2022-10-21 17:14:00+00:00,219.0,4.24,216.0,5.21,13.68,47.59359,-54.27349
2022-10-21 17:24:00+00:00,228.0,4.01,218.0,4.71,13.68,47.59359,-54.27349
2022-10-21 17:34:00+00:00,225.0,4.33,218.0,4.82,13.68,47.59359,-54.27349
2022-10-21 17:44:00+00:00,245.0,3.51,239.0,4.08,13.68,47.59359,-54.27349
2022-10-21 17:54:00+00:00,262.0,4.91,260.0,6.74,13.68,47.59359,-54.27349
2022-10-21 18:04:00+00:00,258.0,4.82,262.0,8.67,13.68,47.59359,-54.27349
2022-10-21 18:14:01+00:00,246.0,5.49,258.0,9.44,13.84,47.59359,-54.27349
2022-10-21 18:24:01+00:00,242.0,4.91,246.0,6.15,13.84,47.59359,-54.27349
2022-10-21 18:34:01+00:00,251.0,4.84,258.0,6.47,13.84,47.59359,-54.27349
2022-10-21 18:44:01+00:00,260.0,7.12,262.0,8.34,13.84,47.59359,-54.27349
2022-10-21 18:54:01+00:00,254.0,7.49,255.0,8.65,13.84,47.59359,-54.27349
2022-10-21 19:04:01+00:00,251.0,7.89,253.0,9.34,13.84,47.59359,-54.27349
2022-10-21 19:14:00+00:00,257.0,8.31,258.0,10.61,13.44,47.59359,-54.27349
2022-10-21 19:24:00+00:00,260.0,7.43,262.0,9.41,13.44,47.59359,-54.27349
2022-10-21 19:34:00+00:00,258.0,5.18,261.0,6.84,13.44,47.59359,-54.27349
2022-10-21 19:44:00+00:00,264.0,5.96,266.0,8.19,13.44,47.59359,-54.27349
2022-10-21 19:54:00+00:00,256.0,7.81,259.0,10.03,13.44,47.59359,-54.27349
2022-10-21 20:04:00+00:00,254.0,5.34,259.0,7.8,13.44,47.59359,-54.27349
2022-10-21 20:14:00+00:00,250.0,4.91,255.0,8.83,13.05,47.59359,-54.27349
2022-10-21 20:24:00+00:00,253.0,8.5,252.0,10.9,13.05,47.59359,-54.27349
2022-10-21 20:34:00+00:00,252.0,8.83,254.0,10.68,13.05,47.59359,-54.27349
2022-10-21 20:44:00+00:00,248.0,7.08,255.0,10.74,13.05,47.59359,-54.27349
2022-10-21 20:54:00+00:00,240.0,5.67,242.0,9.37,13.05,47.59359,-54.27349
2022-10-21 21:04:00+00:00,238.0,6.71,250.0,10.27,13.05,47.59359,-54.27349
2022-10-21 21:14:00+00:00,235.0,6.38,241.0,8.72,12.57,47.59359,-54.27349
2022-10-21 21:24:00+00:00,252.0,8.19,255.0,10.49,12.57,47.59359,-54.27349
2022-10-21 21:34:00+00:00,243.0,5.3,252.0,8.78,12.57,47.59359,-54.27349
2022-10-21 21:44:00+00:00,251.0,6.01,263.0,9.67,12.57,47.59359,-54.27349
2022-10-21 21:54:00+00:00,253.0,7.58,250.0,10.7,12.57,47.59359,-54.27349
2022-10-21 22:04:00+00:00,253.0,8.52,251.0,10.44,12.57,47.59359,-54.27349
2022-10-21 22:14:01+00:00,247.0,8.14,251.0,10.91,12.57,47.59359,-54.27349
2022-10-21 22:24:01+00:00,254.0,8.71,260.0,10.68,12.57,47.59359,-54.27349
2022-10-21 22:34:01+00:00,255.0,10.21,255.0,10.82,12.57,47.59359,-54.27349
2022-10-21 22:44:01+00:00,250.0,9.4,253.0,11.06,12.57,47.59359,-54.27349
2022-10-21 22:54:01+00:00,251.0,6.22,258.0,9.75,12.57,47.59359,-54.27349
2022-10-21 23:04:01+00:00,240.0,6.21,251.0,9.79,12.57,47.59359,-54.27349
2022-10-21 23:14:00+00:00,239.0,6.91,248.0,10.29,12.49,47.59359,-54.27349
2022-10-21 23:24:00+00:00,245.0,5.66,259.0,10.06,12.49,47.59359,-54.27349
2022-10-21 23:34:00+00:00,250.0,5.24,257.0,6.9,12.49,47.59359,-54.27349
2022-10-21 23:44:00+00:00,258.0,8.95,259.0,10.13,12.49,47.59359,-54.27349
2022-10-21 23:54:00+00:00,250.0,5.69,258.0,9.73,12.49,47.59359,-54.27349
